Date,TemperatureHighF,TemperatureAvgF,TemperatureLowF,DewpointHighF,DewpointAvgF,DewpointLowF,HumidityHigh,HumidityAvg,HumidityLow,PressureMaxIn,PressureMinIn,WindSpeedMaxMPH,WindSpeedAvgMPH,GustSpeedMaxMPH,PrecipitationSumIn
2013-10-1,79.8,61.2,45.6,50.4,46.9,41.6,86,63,34,29.99,29.87,13,2,13,0.01
2013-10-2,80.7,63.5,49.0,50.8,44.5,37.5,83,54,22,29.99,29.88,18,5,18,0.00
2013-10-3,75.3,64.8,48.6,41.1,36.0,28.3,69,37,18,30.06,29.93,23,8,23,0.00
2013-10-4,82.3,70.8,55.7,35.8,31.9,28.7,45,25,16,30.06,29.97,20,6,20,0.00
2013-10-5,85.3,63.3,43.2,41.7,37.3,33.8,73,43,18,30.16,30.05,13,2,13,0.00
2013-10-6,85.3,61.6,42.3,44.6,39.1,35.6,78,48,19,30.10,29.96,13,1,12,0.00
2013-10-7,83.2,61.5,43.9,48.6,41.3,33.4,76,52,17,29.97,29.82,12,2,12,0.00
2013-10-8,77.3,59.6,44.2,49.4,43.9,39.1,83,59,33,29.88,29.67,12,2,12,0.00
2013-10-9,73.8,61.3,52.1,45.8,43.1,40.3,69,53,32,29.73,29.58,17,4,17,0.00
2013-10-10,68.3,53.4,47.3,50.2,44.5,39.5,84,72,52,29.98,29.72,15,2,15,0.00
2013-10-11,67.0,52.1,46.1,50.5,45.2,41.6,88,79,52,30.07,29.95,12,2,12,0.00
2013-10-12,69.8,53.9,41.3,51.2,44.1,37.7,92,71,49,29.99,29.84,13,2,13,0.01
2013-10-13,75.5,56.9,42.1,47.6,43.5,37.6,85,64,33,30.03,29.89,17,3,17,0.00
2013-10-14,80.9,58.0,41.0,46.0,41.0,36.3,85,58,26,30.09,29.96,16,1,16,0.00
2013-10-15,85.2,58.9,40.4,45.4,38.6,35.0,82,53,19,30.02,29.90,15,1,15,0.00
2013-10-16,84.4,59.1,40.2,43.0,38.1,34.3,80,51,20,30.06,29.96,12,1,12,0.00
2013-10-17,84.7,58.9,41.0,45.2,39.4,35.0,80,54,22,30.06,29.92,12,2,12,0.00
2013-10-18,78.9,56.0,40.7,49.5,43.1,36.2,85,66,31,30.03,29.94,12,2,10,0.00
2013-10-19,86.0,57.1,39.7,48.0,42.1,35.3,85,63,22,30.06,29.94,10,1,9,0.00
2013-10-20,78.4,54.1,41.6,52.3,43.9,37.7,87,72,36,30.00,29.87,12,2,12,0.00
2013-10-21,73.5,53.6,46.3,53.2,46.1,42.6,92,78,47,29.98,29.87,8,2,8,0.00
2013-10-22,76.9,53.7,45.3,54.0,46.0,42.0,92,77,44,30.00,29.89,12,2,12,0.01
2013-10-23,73.0,52.2,45.0,53.3,45.5,41.7,92,79,48,29.96,29.86,12,3,12,0.00
2013-10-24,65.9,51.6,46.4,50.2,45.4,42.7,88,80,55,30.08,29.94,9,2,9,0.01
2013-10-25,70.0,52.5,41.3,51.6,44.2,37.3,87,75,51,30.15,30.05,9,1,9,0.00
2013-10-26,81.8,55.7,39.7,52.6,43.6,35.8,86,68,31,30.12,29.98,9,2,9,0.01
2013-10-27,63.9,52.0,46.4,49.9,44.9,40.8,88,78,57,30.00,29.61,16,3,16,0.00
2013-10-28,65.5,53.4,40.7,46.0,42.5,35.9,84,68,46,29.80,29.63,13,3,13,0.00
2013-10-29,65.0,52.6,44.1,48.1,44.0,39.1,84,73,52,30.03,29.79,13,2,12,0.00
2013-10-30,67.3,51.3,38.9,47.9,41.8,35.1,87,72,48,30.13,30.02,13,2,13,0.00
2013-10-31,74.2,53.7,38.5,48.9,41.5,34.1,85,66,39,30.15,30.03,12,1,12,0.01